When you browse on this site, cookies collect data to enhance your experience and personalize the content and advertising you see.
Visit our Privacy Policy to learn more. By continuing to use the site, you agree to this use of cookies and data.
  • In Hungary
  • List of Countries
  • For 7 days
  • Water Temperature
  • Satellite Maps
  • Weather Map
  • News
  • Weather Widgets
  • user-avatar
    Login

    Hourly Weather Chaplin

    Today, 11 December, Tuesday

    Time Temperature Precipitation Wind Pressure Humidity
    00:00 -2°C° 0 mm 2 mps 742 mmHg 96%
    01:00 -2°C° 0 mm 2 mps 742 mmHg 96%
    02:00 -2°C° 0 mm 2 mps 742 mmHg 96%
    03:00 -2°C° 0 mm 2 mps 743 mmHg 96%
    04:00 -2°C° 0 mm 2 mps 743 mmHg 96%
    05:00 -2°C° 0 mm 2 mps 743 mmHg 96%
    06:00 -2°C° 0 mm 2 mps 743 mmHg 96%
    07:00 -2°C° 0 mm 2 mps 744 mmHg 97%
    08:00 -2°C° 0 mm 2 mps 744 mmHg 97%
    09:00 -1°C° 0 mm 2 mps 744 mmHg 97%
    10:00 -1°C° 0 mm 2 mps 745 mmHg 97%
    11:00 -1°C° 0 mm 2 mps 745 mmHg 98%
    12:00 +2°C° 0 mm 1 mps 745 mmHg 98%
    13:00 +2°C° 0 mm 1 mps 746 mmHg 98%
    14:00 +2°C° 0 mm 1 mps 746 mmHg 98%
    15:00 +2°C° 0 mm 1 mps 746 mmHg 98%
    16:00 +1°C° 0 mm 1 mps 747 mmHg 97%
    17:00 +1°C° 0 mm 1 mps 747 mmHg 96%
    18:00 +1°C° 0 mm 1 mps 747 mmHg 96%
    19:00 +1°C° 0 mm 1 mps 748 mmHg 96%
    20:00 +1°C° 0 mm 1 mps 748 mmHg 96%
    21:00 +1°C° 0 mm 1 mps 748 mmHg 96%
    22:00 +1°C° 0 mm 1 mps 748 mmHg 96%
    23:00 0°C° 0 mm 0 mps 749 mmHg 96%

    Tomorrow, 12 December, Wednesday

    Time Temperature Precipitation Wind Pressure Humidity
    00:00 0°C° 0 mm 1 mps 749 mmHg 96%
    01:00 0°C° 0 mm 1 mps 749 mmHg 96%
    02:00 0°C° 0 mm 1 mps 749 mmHg 96%
    03:00 0°C° 0 mm 1 mps 749 mmHg 96%
    04:00 -2°C° 0 mm 2 mps 749 mmHg 96%
    05:00 -2°C° 0 mm 2 mps 749 mmHg 96%
    06:00 -2°C° 0 mm 2 mps 749 mmHg 95%
    07:00 -2°C° 0 mm 3 mps 749 mmHg 95%
    08:00 -2°C° 0 mm 3 mps 749 mmHg 94%
    09:00 -3°C° 0 mm 4 mps 749 mmHg 92%
    10:00 -2°C° 0 mm 4 mps 749 mmHg 90%
    11:00 -2°C° 0 mm 5 mps 748 mmHg 89%
    12:00 -2°C° 0.1 mm 5 mps 748 mmHg 89%
    13:00 -1°C° 0.1 mm 5 mps 748 mmHg 89%
    14:00 -1°C° 0.1 mm 5 mps 748 mmHg 90%
    15:00 -2°C° 0.3 mm 6 mps 748 mmHg 89%
    16:00 -2°C° 0.3 mm 6 mps 748 mmHg 89%
    17:00 -2°C° 0.3 mm 6 mps 748 mmHg 89%
    18:00 -2°C° 0.5 mm 6 mps 748 mmHg 89%
    19:00 -2°C° 0.5 mm 6 mps 748 mmHg 89%
    20:00 -2°C° 0.5 mm 6 mps 748 mmHg 89%
    21:00 -2°C° 0.5 mm 6 mps 748 mmHg 89%
    22:00 -2°C° 0.5 mm 6 mps 748 mmHg 90%
    23:00 -3°C° 0.5 mm 6 mps 748 mmHg 90%

    Day after tomorrow, 13 December, Thursday

    Time Temperature Precipitation Wind Pressure Humidity
    00:00 -3°C° 0.4 mm 6 mps 748 mmHg 90%
    01:00 -3°C° 0.4 mm 6 mps 748 mmHg 90%
    02:00 -3°C° 0.4 mm 6 mps 748 mmHg 91%
    03:00 -3°C° 0.4 mm 6 mps 748 mmHg 91%
    04:00 -3°C° 0.4 mm 6 mps 748 mmHg 91%
    05:00 -3°C° 0.4 mm 6 mps 748 mmHg 92%
    06:00 -3°C° 0.4 mm 6 mps 748 mmHg 92%
    07:00 -2°C° 0.4 mm 5 mps 748 mmHg 92%
    08:00 -4°C° 0.4 mm 5 mps 748 mmHg 92%
    09:00 -2°C° 0.3 mm 5 mps 748 mmHg 91%
    10:00 -2°C° 0.3 mm 5 mps 748 mmHg 91%
    11:00 -2°C° 0.3 mm 5 mps 748 mmHg 91%
    12:00 -2°C° 0.3 mm 5 mps 748 mmHg 91%
    13:00 -2°C° 0.3 mm 5 mps 748 mmHg 91%
    14:00 -1°C° 0.3 mm 5 mps 748 mmHg 91%
    15:00 -1°C° 0.2 mm 5 mps 748 mmHg 91%
    16:00 -1°C° 0.2 mm 5 mps 748 mmHg 91%
    17:00 -1°C° 0.2 mm 5 mps 749 mmHg 91%
    18:00 -1°C° 0.1 mm 5 mps 749 mmHg 92%
    19:00 -1°C° 0.1 mm 5 mps 749 mmHg 92%
    20:00 -1°C° 0.1 mm 4 mps 750 mmHg 93%
    21:00 -2°C° 0 mm 4 mps 750 mmHg 93%
    22:00 -2°C° 0 mm 4 mps 751 mmHg 92%
    23:00 -2°C° 0 mm 4 mps 751 mmHg 92%

    14 December, Friday

    Time Temperature Precipitation Wind Pressure Humidity
    00:00 -2°C° 0 mm 4 mps 751 mmHg 92%
    01:00 -2°C° 0 mm 4 mps 752 mmHg 91%
    02:00 -2°C° 0 mm 3 mps 752 mmHg 91%
    03:00 -2°C° 0 mm 3 mps 752 mmHg 91%
    04:00 -4°C° 0 mm 3 mps 752 mmHg 92%
    05:00 -4°C° 0 mm 3 mps 753 mmHg 92%
    06:00 -4°C° 0 mm 3 mps 753 mmHg 93%
    07:00 -4°C° 0 mm 4 mps 753 mmHg 93%
    08:00 -5°C° 0 mm 4 mps 754 mmHg 93%
    09:00 -4°C° 0 mm 4 mps 754 mmHg 93%
    10:00 -4°C° 0 mm 4 mps 754 mmHg 93%
    11:00 -3°C° 0 mm 4 mps 755 mmHg 92%
    12:00 -3°C° 0 mm 4 mps 755 mmHg 92%
    13:00 -3°C° 0 mm 4 mps 755 mmHg 92%
    14:00 -3°C° 0 mm 4 mps 755 mmHg 92%
    15:00 -3°C° 0 mm 4 mps 756 mmHg 92%
    16:00 -3°C° 0 mm 4 mps 756 mmHg 93%
    17:00 -2°C° 0 mm 3 mps 756 mmHg 93%
    18:00 -4°C° 0 mm 3 mps 757 mmHg 93%
    19:00 -4°C° 0 mm 3 mps 757 mmHg 94%
    20:00 -4°C° 0 mm 3 mps 757 mmHg 94%
    21:00 -4°C° 0 mm 3 mps 758 mmHg 94%
    22:00 -4°C° 0 mm 3 mps 758 mmHg 94%
    23:00 -4°C° 0 mm 3 mps 758 mmHg 95%

    15 December, Saturday

    Time Temperature Precipitation Wind Pressure Humidity
    00:00 -5°C° 0 mm 3 mps 759 mmHg 95%
    01:00 -5°C° 0 mm 3 mps 759 mmHg 95%
    02:00 -6°C° 0 mm 3 mps 759 mmHg 95%
    03:00 -6°C° 0 mm 3 mps 759 mmHg 95%
    04:00 -6°C° 0 mm 3 mps 760 mmHg 95%
    05:00 -7°C° 0 mm 3 mps 760 mmHg 95%
    06:00 -7°C° 0 mm 3 mps 760 mmHg 94%
    07:00 -7°C° 0 mm 3 mps 760 mmHg 94%
    08:00 -7°C° 0 mm 3 mps 761 mmHg 94%
    09:00 -6°C° 0 mm 3 mps 761 mmHg 94%
    10:00 -5°C° 0 mm 2 mps 762 mmHg 93%
    11:00 -4°C° 0 mm 2 mps 762 mmHg 93%
    12:00 -4°C° 0 mm 2 mps 762 mmHg 93%
    13:00 -4°C° 0 mm 2 mps 762 mmHg 93%
    14:00 -3°C° 0 mm 2 mps 763 mmHg 93%
    15:00 -3°C° 0 mm 2 mps 763 mmHg 93%
    16:00 -3°C° 0 mm 2 mps 763 mmHg 93%
    17:00 -3°C° 0 mm 2 mps 763 mmHg 94%
    18:00 -3°C° 0 mm 2 mps 764 mmHg 94%
    19:00 -3°C° 0 mm 2 mps 764 mmHg 94%
    20:00 -3°C° 0 mm 2 mps 764 mmHg 94%
    21:00 -4°C° 0 mm 2 mps 764 mmHg 94%
    22:00 -2°C° 0 mm 1 mps 764 mmHg 95%
    23:00 -2°C° 0 mm 1 mps 765 mmHg 95%

    16 December, Sunday

    Time Temperature Precipitation Wind Pressure Humidity
    00:00 -2°C° 0 mm 1 mps 765 mmHg 95%
    01:00 -2°C° 0 mm 1 mps 765 mmHg 95%
    02:00 -2°C° 0 mm 1 mps 765 mmHg 95%
    03:00 -2°C° 0 mm 1 mps 765 mmHg 95%
    04:00 -4°C° 0 mm 2 mps 765 mmHg 95%
    05:00 -5°C° 0 mm 2 mps 765 mmHg 95%
    06:00 -5°C° 0 mm 2 mps 765 mmHg 95%
    07:00 -5°C° 0 mm 2 mps 765 mmHg 95%
    08:00 -5°C° 0 mm 2 mps 766 mmHg 95%
    09:00 -5°C° 0 mm 2 mps 766 mmHg 95%
    10:00 -4°C° 0 mm 2 mps 766 mmHg 94%
    11:00 -4°C° 0 mm 2 mps 766 mmHg 93%
    12:00 -4°C° 0 mm 2 mps 766 mmHg 93%
    13:00 -4°C° 0 mm 2 mps 765 mmHg 93%
    14:00 -4°C° 0 mm 2 mps 765 mmHg 92%
    15:00 -4°C° 0 mm 2 mps 765 mmHg 93%
    16:00 -5°C° 0 mm 2 mps 765 mmHg 93%
    17:00 -7°C° 0 mm 3 mps 765 mmHg 93%
    18:00 -7°C° 0 mm 3 mps 765 mmHg 93%
    19:00 -8°C° 0 mm 3 mps 765 mmHg 93%
    20:00 -9°C° 0 mm 3 mps 765 mmHg 93%
    21:00 -8°C° 0 mm 2 mps 765 mmHg 93%
    22:00 -9°C° 0 mm 2 mps 765 mmHg 93%
    23:00 -9°C° 0 mm 2 mps 764 mmHg 92%
    Show more